Location: Newark
(33.6439°N, 114.9881°W)
Time: 18:21:30
(UTC+00:00)

A-11 Canister half - All Passes

Search period start: 23 August 2019 00:00
Search period end: 02 September 2019 00:00
Orbit: 1526 x 1683 km, 47.3° (Epoch: 22 August)

Date Brightness Start Highest point End Pass type
(mag) Time Alt. Az. Time Alt. Az. Time Alt. Az.
23 Aug - 00:49:06 10° NW 00:59:12 63° NNE 01:09:07 10° ESE daylight
23 Aug - 02:54:41 10° WNW 03:04:14 49° SW 03:13:35 10° SSE visible
23 Aug - 16:07:23 10° SSE 16:13:33 19° ESE 16:19:48 10° E daylight
23 Aug - 18:07:39 10° SW 18:17:24 74° SE 18:27:29 10° NE daylight
23 Aug - 20:13:34 10° W 20:23:09 49° NNW 20:32:55 10° NE daylight
23 Aug - 22:21:16 10° WNW 22:30:30 38° N 22:39:44 10° ENE daylight
24 Aug - 00:27:25 10° NW 00:37:29 61° NNE 00:47:24 10° ESE daylight
24 Aug - 02:32:57 10° WNW 02:42:37 52° SW 02:52:05 10° SSE visible
24 Aug - 15:46:16 10° SSE 15:51:59 17° ESE 15:57:47 10° E daylight
24 Aug - 17:46:05 10° SW 17:55:47 70° SE 18:05:48 10° ENE daylight
24 Aug - 19:51:50 10° W 20:01:25 50° NNW 20:11:14 10° NE daylight
24 Aug - 21:59:32 10° WNW 22:08:43 37° N 22:17:57 10° ENE daylight
25 Aug - 00:05:45 10° NW 00:15:47 59° NNE 00:25:41 10° ESE daylight
25 Aug - 02:11:14 10° WNW 02:21:00 55° SW 02:30:35 10° SSE daylight
25 Aug - 04:22:20 10° WSW 04:24:33 11° WSW 04:26:45 10° SW visible
25 Aug - 15:25:14 10° SSE 15:30:26 16° ESE 15:35:42 10° E daylight
25 Aug - 17:24:31 10° SW 17:34:09 67° SE 17:44:05 10° ENE daylight
25 Aug - 19:30:05 10° W 19:39:41 51° NNW 19:49:32 10° NE daylight
25 Aug - 21:37:47 10° WNW 21:46:57 37° N 21:56:11 10° ENE daylight
25 Aug - 23:44:05 10° NW 23:54:04 57° NNE 00:03:57 10° ESE daylight
26 Aug - 01:49:31 10° WNW 01:59:23 58° SW 02:09:03 10° SSE daylight
26 Aug - 03:59:32 10° W 04:02:59 12° WSW 04:06:26 10° SW visible
26 Aug - 15:04:16 10° SSE 15:08:52 14° ESE 15:13:31 10° E daylight
26 Aug - 17:02:58 10° SW 17:12:31 64° SE 17:22:24 10° ENE daylight
26 Aug - 19:08:22 10° W 19:17:58 53° NNW 19:27:51 10° NE daylight
26 Aug - 21:16:02 10° WNW 21:25:11 37° N 21:34:25 10° ENE daylight
26 Aug - 23:22:24 10° NW 23:32:21 55° NNE 23:42:12 10° ESE daylight
27 Aug - 01:27:49 10° WNW 01:37:46 61° SW 01:47:30 10° SSE daylight
27 Aug - 03:37:07 10° W 03:41:25 14° WSW 03:45:43 10° SSW visible
27 Aug - 14:43:27 10° SE 14:47:19 13° ESE 14:51:13 10° E daylight
27 Aug - 16:41:26 10° SSW 16:50:54 61° SE 17:00:42 10° ENE daylight
27 Aug - 18:46:38 10° WSW 18:56:15 55° NNW 19:06:10 10° NE daylight
27 Aug - 20:54:17 10° WNW 21:03:24 37° N 21:12:38 10° ENE daylight
27 Aug - 23:00:44 10° NW 23:10:38 53° NNE 23:20:28 10° E daylight
28 Aug - 01:06:08 10° WNW 01:16:07 64° SW 01:25:57 10° SE daylight
28 Aug - 03:14:52 10° W 03:19:52 15° WSW 03:24:49 10° SSW visible
28 Aug - 14:22:52 10° SE 14:25:46 12° ESE 14:28:42 10° ESE daylight
28 Aug - 16:19:55 10° SSW 16:29:17 57° SE 16:38:59 10° ENE daylight
28 Aug - 18:24:55 10° WSW 18:34:32 56° NNW 18:44:28 10° NE daylight
28 Aug - 20:32:32 10° WNW 20:41:38 37° N 20:50:52 10° ENE daylight
28 Aug - 22:39:03 10° NW 22:48:54 52° NNE 22:58:42 10° E daylight
29 Aug - 00:44:26 10° WNW 00:54:29 67° SW 01:04:23 10° SE daylight
29 Aug - 02:52:43 10° W 02:58:18 16° WSW 03:03:49 10° SSW visible
29 Aug - 14:02:57 10° SE 14:04:14 10° ESE 14:05:30 10° ESE daylight
29 Aug - 15:58:25 10° SSW 16:07:41 54° SE 16:17:17 10° ENE daylight
29 Aug - 18:03:12 10° WSW 18:12:50 58° NNW 18:22:48 10° NE daylight
29 Aug - 20:10:47 10° WNW 20:19:52 37° N 20:29:06 10° ENE daylight
29 Aug - 22:17:22 10° NW 22:27:10 50° NNE 22:36:56 10° E daylight
30 Aug - 00:22:44 10° WNW 00:32:51 71° SW 00:42:48 10° SE daylight
30 Aug - 02:30:39 10° W 02:36:43 18° WSW 02:42:45 10° SSW visible
30 Aug - 15:36:54 10° SSW 15:46:05 51° SE 15:55:33 10° ENE daylight
30 Aug - 17:41:29 10° WSW 17:51:08 60° NNW 18:01:07 10° NE daylight
30 Aug - 19:49:01 10° WNW 19:58:06 37° N 20:07:20 10° ENE daylight
30 Aug - 21:55:42 10° NW 22:05:26 49° NNE 22:15:11 10° E daylight
31 Aug - 00:01:04 10° NW 00:11:12 74° SW 00:21:13 10° SE daylight
31 Aug - 02:08:39 10° W 02:15:09 19° WSW 02:21:36 10° SSW daylight
31 Aug - 15:15:26 10° SSW 15:24:28 48° SE 15:33:49 10° ENE daylight
31 Aug - 17:19:48 10° WSW 17:29:26 62° NNW 17:39:25 10° NE daylight
31 Aug - 19:27:17 10° WNW 19:36:20 38° N 19:45:34 10° ENE daylight
31 Aug - 21:34:01 10° NW 21:43:42 48° NNE 21:53:24 10° E daylight
31 Aug - 23:39:23 10° NW 23:49:33 77° SW 23:59:37 10° SE daylight
01 Sep - 01:46:41 10° W 01:53:34 21° SW 02:00:25 10° SSW daylight
01 Sep - 14:53:57 10° SSW 15:02:53 46° SE 15:12:06 10° ENE daylight
01 Sep - 16:58:07 10° WSW 17:07:45 65° NNW 17:17:45 10° NE daylight
01 Sep - 19:05:31 10° WNW 19:14:34 38° N 19:23:49 10° ENE daylight
01 Sep - 21:12:20 10° NW 21:21:58 46° NNE 21:31:37 10° E daylight
01 Sep - 23:17:42 10° NW 23:27:53 81° SW 23:38:00 10° SE daylight
